| time (UTC) | temp F | wind direction | speed MPH | gust MPH | rain 1hr in | rain 24hr in | rain mn in | humidity % | barometer mb |
| 20260505100002 | 34 | 302 | 0.0 | 0.0 | 0.00 | 0.00 | 0.00 | 70 | 1012.5 |
| 20260505094600 | 34 | 285 | 0.0 | 0.0 | 0.00 | 0.00 | 0.00 | 70 | 1012.4 |
| 20260505093059 | 34 | 304 | 0.0 | 0.0 | 0.00 | 0.00 | 0.00 | 70 | 1012.3 |
| 20260505091605 | 34 | 306 | 0.0 | 0.0 | 0.00 | 0.00 | 0.00 | 70 | 1012.3 |
| 20260505090039 | 34 | 311 | 0.0 | 0.0 | 0.00 | 0.00 | 0.00 | 69 | 1012.3 |
| 20260505084526 | 34 | 295 | 0.0 | 0.0 | 0.00 | 0.00 | 0.00 | 69 | 1012.3 |
| 20260505083023 | 35 | 303 | 0.0 | 0.0 | 0.00 | 0.00 | 0.00 | 68 | 1012.2 |
| 20260505081522 | 35 | 301 | 0.0 | 0.0 | 0.00 | 0.00 | 0.00 | 69 | 1012.2 |
| 20260505080020 | 35 | 304 | 0.0 | 0.0 | 0.00 | 0.00 | 0.00 | 68 | 1012.2 |
| 20260505074520 | 35 | 268 | 0.0 | 0.0 | 0.00 | 0.00 | 0.00 | 68 | 1012.1 |
| 20260505073028 | 35 | 287 | 0.0 | 0.0 | 0.00 | 0.00 | 0.00 | 66 | 1012.2 |
| 20260505071519 | 35 | 335 | 0.0 | 0.0 | 0.00 | 0.00 | 0.00 | 65 | 1012.1 |
| 20260505070014 | 35 | 332 | 0.0 | 0.0 | 0.00 | 0.00 | 0.00 | 65 | 1012.1 |
| 20260505064531 | 36 | 309 | 0.0 | 0.0 | 0.00 | 0.00 | 0.00 | 62 | 1012.1 |
| 20260505063008 | 36 | 316 | 0.0 | 0.0 | 0.00 | 0.00 | 0.00 | 61 | 1012.1 |
| 20260505061515 | 37 | 331 | 0.0 | 1.0 | 0.00 | 0.00 | 0.00 | 60 | 1011.9 |
| 20260505060006 | 37 | 325 | 0.0 | 0.0 | 0.00 | 0.00 | 0.00 | 60 | 1011.7 |
| 20260505054504 | 37 | 327 | 0.0 | 1.0 | 0.00 | 0.00 | 0.00 | 61 | 1011.6 |
| 20260505053034 | 37 | 317 | 0.0 | 1.0 | 0.00 | 0.00 | 0.00 | 60 | 1011.4 |
| 20260505051533 | 37 | 317 | 0.0 | 1.0 | 0.00 | 0.00 | 0.00 | 59 | 1011.4 |
| 20260505041525 | 36 | 314 | 0.0 | 0.0 | 0.00 | 0.00 | 0.00 | 58 | 1011.1 |
| 20260505040022 | 35 | 321 | 0.0 | 0.0 | 0.00 | 0.00 | 0.00 | 58 | 1011.0 |
| 20260505034522 | 35 | 324 | 0.0 | 0.0 | 0.00 | 0.00 | 0.00 | 59 | 1010.8 |
| 20260505033021 | 36 | 334 | 0.0 | 0.0 | 0.00 | 0.00 | 0.00 | 58 | 1010.6 |
| 20260505031536 | 36 | 334 | 0.0 | 0.0 | 0.00 | 0.00 | 0.00 | 57 | 1010.5 |
| 20260505030015 | 36 | 314 | 0.0 | 0.0 | 0.00 | 0.00 | 0.00 | 56 | 1010.3 |
| 20260505024517 | 37 | 316 | 0.0 | 2.0 | 0.00 | 0.00 | 0.00 | 55 | 1010.1 |
| 20260505023009 | 37 | 325 | 0.0 | 1.0 | 0.00 | 0.00 | 0.00 | 54 | 1009.7 |
| 20260505021503 | 37 | 333 | 0.0 | 0.0 | 0.00 | 0.00 | 0.00 | 54 | 1009.4 |
| 20260505020100 | 39 | 349 | 0.0 | 0.0 | 0.00 | 0.00 | 0.00 | 53 | 1009.1 |
| 20260505014601 | 40 | 307 | 0.0 | 1.0 | 0.00 | 0.00 | 0.00 | 51 | 1008.9 |
| 20260505013104 | 41 | 340 | 0.0 | 1.0 | 0.00 | 0.00 | 0.00 | 49 | 1008.7 |
| 20260505011546 | 42 | 358 | 0.0 | 2.0 | 0.00 | 0.00 | 0.00 | 47 | 1008.5 |
| 20260505010041 | 43 | 319 | 0.0 | 3.0 | 0.00 | 0.00 | 0.00 | 45 | 1008.3 |
| 20260505004547 | 43 | 342 | 0.0 | 7.0 | 0.00 | 0.00 | 0.00 | 45 | 1008.2 |
| 20260505003036 | 44 | 333 | 0.0 | 5.0 | 0.00 | 0.00 | 0.00 | 45 | 1008.2 |
| 20260505001536 | 44 | 323 | 0.0 | 3.0 | 0.00 | 0.00 | 0.00 | 45 | 1008.1 |
| 20260505000052 | 44 | 328 | 0.0 | 5.0 | 0.00 | 0.00 | 0.00 | 45 | 1008.1 |
| 20260504234530 | 44 | 307 | 0.0 | 9.0 | 0.00 | 0.00 | 0.00 | 45 | 1007.9 |
| 20260504233027 | 45 | 343 | 0.0 | 8.0 | 0.00 | 0.00 | 0.00 | 45 | 1007.8 |
| 20260504231530 | 46 | 329 | 0.0 | 6.0 | 0.00 | 0.00 | 0.00 | 44 | 1007.7 |
| 20260504230025 | 46 | 323 | 0.0 | 19.0 | 0.00 | 0.00 | 0.00 | 44 | 1007.6 |
| 20260504224552 | 46 | 303 | 0.0 | 2.0 | 0.00 | 0.00 | 0.00 | 44 | 1007.4 |
| 20260504223051 | 46 | 335 | 0.0 | 7.0 | 0.00 | 0.00 | 0.00 | 46 | 1007.3 |
| 20260504221558 | 47 | 341 | 0.0 | 3.0 | 0.00 | 0.00 | 0.00 | 45 | 1007.1 |
| 20260504220048 | 47 | 321 | 0.0 | 3.0 | 0.00 | 0.00 | 0.00 | 43 | 1006.9 |
| 20260504214546 | 47 | 310 | 0.0 | 17.0 | 0.00 | 0.00 | 0.00 | 44 | 1006.8 |
| 20260504213046 | 47 | 309 | 0.0 | 3.0 | 0.00 | 0.00 | 0.00 | 43 | 1006.9 |
| 20260504211545 | 47 | 318 | 0.0 | 2.0 | 0.00 | 0.00 | 0.00 | 47 | 1006.8 |
| 20260504210038 | 46 | 321 | 0.0 | 3.0 | 0.00 | 0.00 | 0.00 | 50 | 1006.8 |
| 20260504204637 | 44 | 328 | 0.0 | 4.0 | 0.00 | 0.00 | 0.00 | 53 | 1007.0 |
| 20260504203035 | 46 | 300 | 0.0 | 5.0 | 0.00 | 0.00 | 0.00 | 51 | 1006.7 |
| 20260504201532 | 46 | 324 | 0.0 | 2.0 | 0.00 | 0.00 | 0.00 | 51 | 1006.7 |
| 20260504200031 | 45 | 320 | 0.0 | 11.0 | 0.00 | 0.00 | 0.00 | 51 | 1006.6 |
| 20260504194530 | 44 | 323 | 0.0 | 6.0 | 0.00 | 0.00 | 0.00 | 55 | 1006.5 |
| 20260504193029 | 45 | 335 | 0.0 | 2.0 | 0.00 | 0.00 | 0.00 | 53 | 1006.3 |
| 20260504191526 | 45 | 323 | 0.0 | 1.0 | 0.00 | 0.00 | 0.00 | 50 | 1006.1 |
| 20260504190025 | 45 | 330 | 0.0 | 5.0 | 0.00 | 0.00 | 0.00 | 52 | 1006.1 |
| 20260504184524 | 45 | 328 | 0.0 | 1.0 | 0.00 | 0.00 | 0.00 | 52 | 1006.1 |
| 20260504183024 | 46 | 295 | 0.0 | 4.0 | 0.00 | 0.00 | 0.00 | 50 | 1006.1 |
| 20260504181557 | 47 | 308 | 0.0 | 5.0 | 0.00 | 0.00 | 0.00 | 50 | 1006.0 |
| 20260504180050 | 45 | 319 | 0.0 | 2.0 | 0.00 | 0.00 | 0.00 | 48 | 1006.0 |
| 20260504174621 | 46 | 309 | 0.0 | 4.0 | 0.00 | 0.00 | 0.00 | 49 | 1006.0 |
| 20260504173019 | 46 | 302 | 0.0 | 2.0 | 0.00 | 0.00 | 0.00 | 53 | 1006.0 |
| 20260504171512 | 44 | 302 | 0.0 | 2.0 | 0.00 | 0.00 | 0.00 | 56 | 1006.1 |
| 20260504100104 | 45 | 328 | 0.0 | 1.0 | 0.00 | 0.00 | 0.00 | 57 | 1002.1 |